ARIANE 2 DEB

基本信息
目录编号:
27040
目录名称:
ARIANE 2 DEB
国际标识:
1989-006V
轨道中心:
EARTH
物体状态:
在轨
发射日期:
1989-01-27 UTC
轨道信息
数据来源: 国际轨道数据
星历时间: 2025-10-13T21:30:15+0800
半长轴: 24690.326km
偏心率: 0.7058296
轨道倾角: 7.319°
近地点辐角: 284.822°
升交点赤经: 161.556°
平近点角: 330.846°
近地点: 885.028km
远地点: 35739.354km
周期: 643.502分钟
每日圈数: 2.237755
详细信息
发射场:
FRGUI
轨道高度:
LEO
数据来源:
AOE Integration Group
参考系:
TEME
时间系统:
UTC
历元类型:
SGP4
2D轨道图
3D轨道图
轨道高度分析图
轨道倾角分析图
轨道综合分析图
查看轨道综合分析图